Simultaneous Nadir Overpasses (SNOs) Predictions

Prediction of SNOs between METOP-B and TERRA Satellite Orbit:

Table of predicted SNOs for the next 14.0 days since TLE Epoch: 8/12/2023
Index Date (METOP-B) Time (METOP-B) Lat,Lon (METOP-B) SZA (METOP-B ) Date (TERRA) Time (TERRA) Lat,Lon (TERRA) SZA (TERRA ) Distance(km) Time Diff (sec)
1 08/12/2023 20:54:28 -80.72, 76.82 112.94 08/12/2023 20:55:42 -80.71, 76.68 112.93 2.78 74
2 08/12/2023 21:45:06 80.77,-114.94 67.20 08/12/2023 21:45:02 80.77,-114.96 67.19 0.40 4
3 08/15/2023 13:06:03 -80.76,-165.43 112.02 08/15/2023 13:06:27 -80.76,-165.49 112.02 1.14 24
4 08/15/2023 13:56:42 80.79, 2.44 68.07 08/15/2023 13:55:48 80.79, 2.54 68.06 1.74 54
5 08/18/2023 04:27:01 80.73, 143.88 68.77 08/18/2023 04:27:53 80.73, 143.80 68.78 1.47 52
6 08/18/2023 05:17:39 -80.79, -47.73 111.08 08/18/2023 05:17:13 -80.79, -47.82 111.10 1.52 26
7 08/20/2023 20:38:38 80.74, -98.84 69.68 08/20/2023 20:38:39 80.75, -98.68 69.70 3.02 1
8 08/23/2023 11:59:36 -80.72,-149.42 109.48 08/23/2023 12:00:04 -80.73,-149.35 109.46 1.42 28
9 08/23/2023 12:50:13 80.79, 19.09 70.69 08/23/2023 12:49:24 80.79, 19.01 70.67 1.34 49



Historial Predications of SNOs between METOP-B and TERRA
